User: anonymous   Login
Location: Columbus
(29.5618°N, 96.6770°W)
Time: 04:45:43
(UTC-05:00)
Language:

Cosmos 2056 Rocket - Orbit

View from above orbital plane
View from above orbital plane
View from above satellite
View from above satellite

Ground track
Ground track

The orbit data is extracted from the following two-line orbital elements,

1 20433U 90004B   16213.16558738  .00000080  00000-0  36208-4 0  9992
2 20433  74.0342 225.4671 0039769  72.3483 353.9174 14.35942235389125
Epoch (UTC): 31 July 2016 03:58:26
Eccentricity: 0.0039769
inclination: 74.0342°
perigee height: 743 km
apogee height: 800 km
right ascension of ascending node: 225.4671°
argument of perigee: 72.3483°
revolutions per day: 14.35942235
mean anomaly at epoch: 353.9174°
orbit number at epoch: 38912

The dashed part of the orbit path shows where the satellite is in the earth's shadow,  

DLR